Wind_Speed
19 19 17 17 17 17 17 17 16 15 15 13 13 13 13 13 13 13 13 14 15 15 14 15 15 16 16 16 16 16 17 17 18 17 17 17 18 19 19 19 19 19 19
19 18 18 18 18 18 17 17 16 14 14 13 13 13 12 12 12 13 13 14 14 14 14 14 16 16 16 16 16 16 17 17 17 16 16 17 18 19 19 19 19 20 20
19 19 19 19 19 19 18 16 15 14 14 13 13 13 13 12 13 14 13 13 13 13 13 13 14 15 15 15 15 16 16 17 17 17 17 18 18 19 19 20 20 20 20
20 20 20 20 19 19 18 16 15 14 14 14 13 13 13 13 13 13 13 13 13 13 14 14 13 14 15 15 15 16 16 17 17 18 18 18 19 19 20 20 21 21 21
20 20 19 19 19 19 18 17 16 15 15 15 14 14 14 14 14 13 13 13 13 13 13 13 13 14 15 15 16 17 17 17 17 18 19 19 19 20 20 20 20 21 21
20 20 20 19 18 18 18 17 17 16 16 16 15 15 14 14 13 13 13 13 13 13 13 14 14 14 15 17 17 17 18 18 18 19 19 20 20 20 21 21 21 21 21
21 21 20 19 19 18 18 18 17 17 17 16 15 14 14 14 13 13 13 14 14 14 15 15 16 16 17 17 18 19 19 19 19 19 20 20 20 21 21 21 21 21 21
21 20 20 19 19 19 19 19 18 17 17 17 16 15 15 15 14 13 14 14 15 15 15 16 17 17 18 18 19 19 18 18 19 20 20 20 20 21 22 21 21 21 21
20 20 20 20 20 19 19 18 18 17 17 17 17 16 16 16 15 15 15 16 16 17 17 17 17 17 18 18 18 18 18 19 20 21 21 21 21 22 22 22 22 22 21
20 20 20 20 19 19 18 18 18 17 17 17 17 17 17 17 17 17 17 17 17 17 18 18 18 17 18 17 18 18 19 20 21 21 21 21 22 22 22 22 22 22 22
20 20 20 19 18 19 18 18 18 18 18 18 18 18 18 18 18 18 18 18 18 18 19 19 19 18 18 19 19 20 21 21 22 22 22 22 22 22 21 22 22 23 23
19 19 19 19 19 19 19 19 19 19 19 19 19 19 19 19 19 19 19 19 19 19 19 20 20 20 20 20 21 22 22 23 23 23 24 24 24 23 23 23 23 23 23
20 19 19 18 19 19 19 19 19 19 19 19 20 20 20 20 20 20 20 20 20 20 20 20 20 21 22 23 23 23 24 24 24 24 24 25 25 25 24 24 25 25 25
21 20 19 19 19 19 19 18 18 19 19 20 20 20 20 20 21 20 20 21 21 21 21 21 22 22 22 24 25 25 25 26 26 25 25 25 26 25 25 25 25 26 26
22 21 21 20 20 20 20 19 19 19 20 21 21 21 20 21 21 21 22 22 22 22 23 23 23 24 24 24 25 25 26 26 26 26 26 26 26 26 26 26 26 26 26
22 21 21 21 20 20 20 20 20 20 20 21 21 21 22 22 22 23 23 24 24 25 25 25 25 25 25 26 27 27 28 28 27 27 26 27 27 26 26 27 26 26 25
23 21 21 21 21 21 20 20 21 21 22 22 22 23 23 24 24 24 24 25 26 26 26 26 26 26 26 27 28 28 28 28 28 27 26 26 26 26 26 26 26 26 25
22 21 21 21 22 21 21 21 22 23 22 23 23 23 24 24 25 25 26 27 27 27 27 27 28 28 28 28 28 28 27 27 27 27 26 25 25 25 25 25 25 25 25
23 22 21 21 20 20 20 22 23 23 24 25 25 25 25 25 25 26 26 27 27 28 28 28 28 28 29 28 28 27 27 26 26 25 25 25 24 25 25 24 24 24 24
22 22 22 22 22 22 22 22 23 24 25 25 26 26 26 27 27 27 27 27 28 28 28 28 28 28 28 27 27 27 27 26 26 25 25 25 25 25 25 25 24 24 24
21 21 22 22 23 24 24 24 25 26 26 26 26 26 27 27 27 27 28 28 28 28 28 27 27 27 27 27 26 26 26 26 26 25 25 25 25 25 25 25 25 24 23
21 21 22 23 23 24 25 26 27 27 27 27 26 26 26 26 27 27 27 27 28 28 27 27 26 26 26 26 26 26 26 25 25 25 25 25 24 24 24 25 24 24 23
21 21 22 23 24 24 25 26 26 26 26 26 26 26 26 26 26 26 27 27 27 26 26 26 26 26 26 26 26 26 25 25 25 25 24 24 24 24 24 24 24 23 23
23 22 23 24 24 24 25 25 25 25 25 25 25 25 26 26 26 27 27 26 26 26 25 25 25 25 25 26 26 26 26 26 26 25 24 24 25 25 25 24 24 24 23
23 24 23 23 24 25 25 26 26 25 24 24 25 26 26 26 26 27 27 27 27 26 26 26 26 26 26 26 26 26 27 27 27 26 26 26 26 26 26 26 25 25 25
24 24 24 25 25 25 25 25 24 24 24 24 25 25 26 26 26 26 27 27 27 27 27 27 27 27 27 27 27 27 27 27 27 26 26 26 26 26 26 26 26 26 26
Wind_Direction
279 281 278 276 279 281 282 283 283 282 280 278 279 281 280 280 277 274 276 277 277 277 275 271 270 270 270 270 272 275 277 279 281 278 275 275 277 282 284 285 284 284 284
280 278 274 274 276 279 280 281 282 279 277 273 275 279 278 280 279 279 279 277 278 277 278 276 271 268 270 273 275 276 277 278 280 278 277 278 280 282 284 284 285 284 284
279 275 273 272 275 277 278 278 276 272 270 272 274 275 276 280 280 279 281 279 280 280 279 280 277 272 272 274 276 276 277 277 278 277 278 280 281 282 284 286 286 285 286
279 276 271 271 275 274 275 274 272 270 270 273 275 275 277 278 278 278 277 276 278 281 281 280 279 280 276 276 278 278 277 277 277 279 279 281 283 285 287 287 286 285 285
276 277 272 272 274 273 271 271 272 272 272 273 274 277 277 276 276 275 274 274 277 282 283 281 281 282 280 280 283 282 279 278 279 280 281 283 285 287 288 288 287 285 285
275 274 272 273 275 272 270 268 269 270 271 272 274 276 277 278 277 275 275 277 277 280 283 284 283 282 283 282 284 284 281 280 281 282 283 285 286 287 288 288 288 286 285
270 270 270 271 272 271 271 268 268 269 269 271 273 275 276 276 276 275 275 275 278 281 284 286 284 283 283 282 283 281 281 281 282 283 286 287 287 289 288 287 287 287 285
267 267 267 269 271 272 271 266 267 268 268 268 268 270 274 275 274 274 275 277 279 282 284 286 285 283 284 284 283 281 281 282 284 284 287 287 288 290 289 288 287 288 288
267 264 265 265 267 268 268 264 266 268 268 266 267 268 271 273 273 274 277 279 281 281 284 286 286 283 285 285 282 282 282 284 286 287 287 286 287 288 289 288 286 286 286
268 263 261 262 263 265 264 263 265 266 267 265 266 267 268 270 273 275 279 282 283 282 284 286 285 284 284 284 283 283 284 285 286 286 287 287 288 290 290 289 286 284 284
266 263 259 260 261 261 261 262 266 267 266 266 268 269 269 270 272 275 277 281 282 284 285 286 285 285 286 286 285 285 286 287 286 287 288 288 288 288 288 288 285 284 284
265 263 259 260 260 259 260 263 265 264 265 267 270 271 271 271 272 274 278 279 281 283 285 286 285 284 285 287 287 286 288 287 287 288 288 288 287 287 287 287 286 285 285
262 261 258 260 262 260 260 262 262 263 265 267 269 271 272 272 272 274 277 278 280 282 284 284 284 285 286 287 287 287 289 289 288 288 287 287 287 286 285 286 286 286 286
260 259 258 258 259 259 259 261 262 264 266 268 269 272 273 273 273 273 275 277 279 281 283 284 285 286 288 287 286 287 288 288 288 288 287 287 287 285 285 285 286 286 287
261 260 258 257 255 257 260 261 265 267 268 269 270 272 272 274 276 274 276 278 279 282 284 284 286 287 287 288 288 288 287 288 288 288 288 288 287 287 286 284 285 287 286
263 261 258 256 255 257 260 261 264 267 269 269 271 272 272 274 276 276 276 276 278 281 282 283 285 285 286 286 287 288 288 288 288 287 287 288 287 287 286 285 285 286 285
260 260 258 256 255 257 259 261 264 267 268 269 271 273 275 276 276 276 276 277 278 279 281 283 283 284 284 285 287 287 288 287 287 287 287 288 287 286 285 285 285 286 284
262 260 259 260 259 260 262 264 266 268 269 270 273 274 275 276 276 276 276 276 277 279 280 282 282 283 283 284 285 286 287 287 287 287 287 288 287 285 285 284 284 284 283
263 261 260 260 262 264 267 269 269 270 271 273 274 275 276 276 276 276 276 276 277 279 280 281 282 282 283 283 284 284 285 286 286 285 285 286 287 287 287 287 286 284 281
264 262 260 261 263 267 270 272 272 273 274 274 276 276 276 277 277 277 277 277 278 280 281 281 281 282 281 282 283 284 285 285 286 285 284 285 286 287 287 287 287 284 283
266 265 263 265 267 268 270 272 273 274 274 275 276 277 277 277 278 279 280 280 280 280 281 282 281 281 282 283 284 284 285 285 285 284 284 285 286 286 287 287 286 285 283
267 269 269 270 271 270 271 273 274 274 273 273 274 277 279 279 280 280 281 282 281 281 281 281 281 282 284 284 284 285 285 285 284 284 285 286 287 287 287 286 285 284 283
267 270 272 272 273 273 273 275 277 276 274 273 274 276 278 280 281 282 283 285 285 283 282 282 281 281 282 283 284 285 286 285 284 285 284 285 286 286 286 284 283 283 282
268 271 273 273 274 275 274 274 276 277 277 277 278 279 280 281 281 283 284 284 284 284 283 282 282 282 282 283 283 284 285 285 283 283 283 284 285 284 284 283 282 282 283
267 270 272 274 276 275 275 274 274 276 278 278 279 280 282 283 284 284 284 283 282 282 282 283 282 281 282 283 283 284 284 284 283 282 281 281 283 284 283 283 283 282 282
267 269 271 274 276 277 277 276 275 275 277 279 281 282 284 285 285 285 285 284 282 282 282 282 281 280 279 280 282 283 284 283 281 281 281 283 283 283 283 283 283 283 281
Height
5845 5844 5843 5843 5842 5841 5840 5839 5838 5837 5836 5835 5835 5834 5833 5833 5832 5832 5832 5831 5831 5830 5830 5830 5829 5829 5829 5829 5829 5829 5828 5827 5826 5825 5824 5824 5823 5822 5821 5820 5818 5817 5816
5840 5839 5838 5838 5837 5837 5836 5835 5834 5833 5833 5832 5831 5831 5830 5829 5829 5828 5827 5827 5827 5826 5826 5825 5825 5825 5825 5825 5825 5824 5824 5823 5822 5821 5820 5819 5819 5818 5817 5815 5814 5812 5811
5836 5834 5834 5833 5833 5833 5832 5831 5830 5830 5829 5829 5828 5827 5827 5826 5825 5825 5824 5823 5823 5823 5822 5822 5821 5821 5821 5821 5820 5820 5819 5819 5818 5816 5815 5815 5814 5813 5812 5811 5809 5807 5806
5831 5830 5829 5829 5828 5828 5828 5828 5827 5826 5826 5825 5824 5824 5823 5822 5821 5821 5821 5820 5820 5819 5819 5819 5818 5817 5817 5816 5816 5815 5815 5814 5813 5812 5811 5811 5810 5808 5807 5805 5804 5802 5801
5826 5825 5824 5824 5824 5824 5824 5823 5823 5823 5822 5822 5821 5820 5819 5818 5818 5817 5817 5817 5816 5816 5816 5815 5814 5814 5813 5812 5812 5811 5810 5809 5809 5808 5807 5806 5805 5803 5802 5800 5799 5797 5796
5821 5820 5820 5820 5820 5819 5819 5819 5819 5819 5818 5818 5817 5816 5815 5814 5814 5813 5814 5813 5813 5813 5812 5811 5810 5810 5809 5809 5808 5807 5806 5805 5804 5803 5802 5801 5799 5798 5796 5795 5793 5792 5791
5815 5815 5815 5816 5815 5815 5815 5815 5814 5814 5814 5813 5813 5813 5812 5811 5810 5810 5810 5810 5809 5809 5808 5807 5806 5806 5805 5804 5803 5802 5800 5800 5799 5798 5797 5795 5794 5793 5791 5789 5788 5786 5785
5810 5810 5811 5811 5810 5810 5810 5810 5810 5809 5809 5809 5809 5809 5808 5807 5807 5807 5806 5806 5805 5805 5804 5803 5802 5801 5800 5799 5798 5796 5795 5794 5793 5793 5792 5790 5788 5787 5785 5784 5782 5781 5780
5805 5805 5805 5805 5805 5805 5805 5805 5805 5805 5804 5804 5804 5804 5804 5803 5803 5803 5802 5802 5801 5800 5800 5799 5797 5796 5795 5794 5792 5791 5790 5789 5788 5787 5786 5784 5783 5781 5779 5778 5776 5775 5774
5799 5799 5799 5799 5799 5799 5800 5800 5800 5800 5800 5800 5800 5799 5799 5799 5799 5798 5798 5797 5796 5796 5795 5794 5792 5791 5790 5789 5787 5786 5785 5784 5782 5781 5780 5778 5777 5775 5773 5772 5770 5769 5768
5793 5793 5793 5794 5794 5794 5794 5795 5795 5795 5795 5795 5795 5794 5794 5794 5794 5793 5793 5792 5791 5791 5790 5789 5787 5786 5785 5784 5782 5781 5779 5778 5777 5775 5774 5772 5771 5769 5767 5766 5764 5763 5761
5788 5788 5788 5788 5788 5788 5789 5789 5789 5789 5789 5789 5789 5789 5789 5788 5788 5788 5788 5787 5786 5785 5784 5783 5782 5781 5780 5778 5777 5775 5774 5772 5770 5769 5767 5765 5764 5762 5761 5759 5757 5756 5754
5782 5783 5783 5783 5783 5783 5783 5783 5783 5784 5784 5784 5784 5783 5783 5783 5783 5782 5782 5781 5780 5779 5778 5777 5776 5775 5773 5772 5771 5769 5767 5766 5764 5762 5761 5759 5757 5755 5754 5752 5750 5749 5747
5777 5777 5777 5777 5777 5777 5777 5778 5778 5778 5778 5778 5778 5777 5777 5777 5776 5776 5775 5775 5774 5773 5772 5771 5770 5768 5767 5765 5764 5762 5760 5759 5757 5755 5753 5752 5750 5748 5746 5744 5743 5741 5740
5770 5771 5771 5771 5771 5771 5771 5772 5772 5772 5772 5772 5772 5771 5771 5771 5770 5770 5769 5768 5768 5767 5765 5764 5762 5761 5760 5758 5756 5754 5752 5750 5748 5747 5745 5743 5741 5740 5738 5736 5734 5733 5732
5764 5764 5764 5765 5765 5765 5765 5765 5765 5766 5766 5765 5765 5765 5765 5764 5763 5763 5762 5761 5760 5759 5758 5756 5755 5753 5752 5750 5749 5747 5744 5742 5740 5738 5737 5735 5733 5731 5730 5728 5726 5725 5723
5758 5758 5758 5758 5759 5759 5759 5759 5759 5759 5759 5759 5758 5758 5758 5757 5756 5755 5755 5754 5753 5751 5750 5748 5747 5745 5744 5742 5740 5738 5736 5734 5732 5730 5728 5727 5725 5723 5722 5720 5718 5717 5715
5751 5751 5752 5752 5752 5753 5753 5753 5753 5752 5752 5752 5751 5751 5750 5749 5748 5747 5746 5745 5744 5743 5741 5740 5738 5736 5735 5733 5731 5729 5727 5725 5723 5722 5720 5719 5717 5715 5713 5712 5710 5709 5708
5745 5745 5745 5746 5746 5746 5746 5746 5746 5746 5745 5745 5744 5743 5743 5742 5740 5739 5738 5737 5736 5734 5732 5731 5729 5727 5725 5723 5721 5720 5718 5716 5715 5713 5712 5711 5709 5707 5705 5704 5702 5701 5699
5738 5739 5739 5739 5740 5740 5740 5740 5739 5739 5738 5737 5736 5735 5734 5733 5732 5731 5730 5728 5727 5725 5723 5721 5720 5718 5716 5714 5712 5711 5710 5708 5707 5705 5704 5703 5701 5699 5698 5696 5695 5693 5692
5732 5732 5733 5733 5733 5733 5733 5732 5732 5731 5730 5729 5728 5727 5726 5725 5724 5722 5721 5719 5718 5716 5714 5713 5711 5709 5707 5706 5704 5703 5701 5700 5698 5697 5696 5695 5693 5692 5690 5689 5687 5686 5684
5726 5726 5726 5726 5726 5725 5725 5725 5724 5723 5722 5721 5720 5719 5718 5717 5716 5714 5713 5711 5709 5708 5706 5704 5702 5701 5699 5698 5696 5695 5693 5692 5691 5689 5688 5687 5685 5684 5682 5681 5680 5678 5677
5720 5720 5719 5719 5719 5718 5717 5717 5716 5715 5714 5713 5712 5711 5710 5709 5708 5706 5705 5703 5701 5699 5697 5696 5695 5693 5692 5690 5688 5687 5686 5684 5683 5682 5680 5679 5678 5676 5675 5673 5672 5671 5670
5713 5713 5713 5712 5711 5711 5710 5709 5708 5707 5706 5705 5704 5703 5702 5701 5700 5698 5696 5694 5693 5691 5689 5688 5686 5685 5684 5682 5681 5679 5678 5676 5675 5674 5673 5672 5670 5669 5668 5666 5665 5664 5663
5706 5706 5705 5705 5704 5703 5703 5702 5701 5700 5699 5697 5697 5695 5694 5693 5691 5690 5688 5686 5684 5682 5681 5679 5678 5677 5676 5674 5673 5671 5670 5668 5667 5666 5665 5664 5663 5661 5660 5659 5657 5656 5655
5698 5698 5698 5697 5696 5696 5695 5694 5693 5692 5691 5690 5689 5687 5686 5684 5683 5681 5679 5677 5675 5674 5672 5671 5669 5668 5667 5666 5664 5663 5662 5660 5659 5658 5657 5656 5654 5653 5652 5651 5649 5648 5647